Location: *
(44.3526°S, 44.9014°W)
Time: 22:48:55
(UTC+00:00)

Cosmos 1455 Rocket - Pass Details

Date: 13 May 2025
Orbit: 599 x 622 km, 82.5° (Epoch: 14 June)

Event Time Altitude Azimuth Distance (km) Brightness Sun altitude
Rises 21:30:22 0° 193° (SSW) 2,892 6.6 -18.9°
Reaches altitude 10° 21:32:38 10° 196° (SSW) 1,979 5.7 -19.3°
Maximum altitude 21:36:55 59° 274° (W) 712 3.6 -20.1°
Drops below altitude 10° 21:41:11 10° 353° (N) 1,954 5.8 -20.9°
Sets 21:43:24 0° 357° (N) 2,851 6.6 -21.2°
